Weather History for KP53 - October, 2012

Change the Weather History Date:

Saturday, October 6, 2012

  Actual Average (KISQ) Record (KISQ)
Temperature  
Mean Temperature 41 °F -  
Max Temperature 46 °F 55 °F 76 °F (1963)
Min Temperature 35 °F 39 °F 26 °F (1964)
Degree Days  
Heating Degree Days 24    
Moisture  
Dew Point 34 °F    
Average Humidity 74    
Maximum Humidity 89    
Minimum Humidity 56    
Precipitation  
Precipitation 0.18 in - - ()
Sea Level Pressure  
Sea Level Pressure 29.98 in    
Wind  
Wind Speed 14 mph (NNW)    
Max Wind Speed 23 mph    
Max Gust Speed 32 mph    
Averages and records for this station are not official NWS values.
T = Trace of Precipitation, MM = Missing Value Source: NWS Daily Summary

Daily Weather History Graph

Daily Weather History Graph

Search for Another Location

Airport or City:

Trip Planner

Search our weather history database for the weather conditions in past years. The results will help you decide how hot, cold, wet, or windy it might be!

Date:

Astronomy

Oct. 06, 2012 Rise Set
Actual Time 7:52 AM EDT 7:15 PM EDT
Civil Twilight 7:22 AM EDT 7:45 PM EDT
Nautical Twilight 6:47 AM EDT 8:20 PM EDT
Astronomical Twilight 6:12 AM EDT 8:55 PM EDT
Moon 11:15 PM EDT (10/6) 2:02 PM EDT (10/6)
Length of Visible Light 12h 23m
Length of Day
11h 23m
Waning Gibbous, 65% of the Moon is Illuminated
Oct 6
Waning Gibbous
Oct 8
Last Quarter
Oct 15
New
Oct 21
First Quarter
Oct 29
Full

Hourly Weather History & Observations

Time (EDT) Temp. Windchill Dew Point Humidity Pressure Visibility Wind Dir Wind Speed Gust Speed Precip Events Conditions
12:56 AM 42.1 °F 36.6 °F 28.9 °F 60% 29.83 in - WNW 9.2 mph - N/A   Unknown
1:56 AM 41.0 °F 35.2 °F 33.1 °F 73% 29.82 in - West 9.2 mph 21.9 mph N/A   Unknown
2:56 AM 41.0 °F 34.3 °F 36.0 °F 82% 29.83 in - West 11.5 mph 20.7 mph 0.02 in   Unknown
3:56 AM 42.1 °F 33.9 °F 36.0 °F 79% 29.83 in - NNW 17.3 mph 27.6 mph 0.03 in   Unknown
4:09 AM 42.8 °F 35.8 °F 35.6 °F 76% 29.81 in - WNW 13.8 mph 25.3 mph 0.03 in   Unknown
4:56 AM 42.1 °F 33.6 °F 36.0 °F 79% 29.84 in - NNW 18.4 mph 27.6 mph 0.05 in   Unknown
5:56 AM 42.1 °F 34.5 °F 35.1 °F 76% 29.85 in - NNW 15.0 mph 28.8 mph 0.03 in   Unknown
6:56 AM 44.1 °F 35.7 °F 36.0 °F 73% 29.86 in - North 20.7 mph - N/A   Unknown
7:56 AM 43.0 °F 35.4 °F 37.0 °F 80% 29.89 in - North 16.1 mph 31.1 mph N/A   Unknown
8:56 AM 43.0 °F 34.8 °F 37.0 °F 80% 29.91 in - North 18.4 mph - 0.01 in   Unknown
9:56 AM 44.1 °F 35.7 °F 36.0 °F 73% 29.94 in - NNW 20.7 mph 32.2 mph N/A   Unknown
10:56 AM 44.1 °F 35.7 °F 35.1 °F 71% 29.97 in - North 20.7 mph 29.9 mph N/A   Unknown
11:56 AM 44.1 °F 35.2 °F 35.1 °F 71% 30.00 in - North 23.0 mph 29.9 mph N/A   Unknown
12:56 PM 45.0 °F 37.1 °F 34.0 °F 65% 30.01 in - North 19.6 mph 31.1 mph N/A   Unknown
1:56 PM 46.0 °F 38.0 °F 33.1 °F 61% 30.03 in - North 21.9 mph 28.8 mph N/A   Unknown
2:56 PM 46.9 °F - 32.0 °F 56% 30.04 in - NNW 20.7 mph 28.8 mph N/A   Unknown
3:56 PM 45.0 °F 36.9 °F 32.0 °F 60% 30.06 in - NNW 20.7 mph 27.6 mph N/A   Unknown
4:56 PM 43.0 °F 35.4 °F 35.1 °F 74% 30.07 in - NNW 16.1 mph 31.1 mph N/A   Unknown
5:56 PM 41.0 °F 32.8 °F 34.0 °F 76% 30.08 in - WNW 16.1 mph 24.2 mph N/A   Unknown
6:18 PM 42.8 °F 35.1 °F 33.8 °F 70% 30.06 in - North 16.1 mph - 0.01 in   Unknown
6:56 PM 43.0 °F 35.7 °F 36.0 °F 76% 30.09 in - North 15.0 mph - 0.01 in   Unknown
7:56 PM 43.0 °F 33.8 °F 36.0 °F 76% 30.10 in - NNW 23.0 mph 32.2 mph N/A   Unknown
8:56 PM 37.0 °F 33.3 °F 34.0 °F 89% 30.12 in - South 4.6 mph - 0.02 in   Unknown
9:56 PM 37.9 °F 33.5 °F 33.1 °F 83% 30.12 in - Variable 5.8 mph 16.1 mph N/A   Unknown
10:56 PM 36.0 °F 30.3 °F 32.0 °F 86% 30.11 in - South 6.9 mph - 0.01 in   Unknown
11:56 PM 35.1 °F 30.1 °F 32.0 °F 89% 30.12 in - South 5.8 mph - N/A   Unknown